Vertical_Velocity
-2 -11 0 17 -6 -5 -3 1 -0 7 -0 -18 -4 -7 7 -0 -6 8 2 2 3 -0 -0 -2 1 -2 -2 -1 -0 0 -2 -1 3 -2 1 0 -1 2 2 -2 2 0 3 4
-8 -11 21 -7 0 -2 -3 -3 12 10 9 -31 -9 -1 2 5 2 -1 -3 0 -1 -2 -5 -2 -1 -2 -1 1 -3 -3 -1 2 -0 -1 -1 -1 -1 -2 2 0 -2 -0 -2 1
-10 23 -4 -2 -2 -2 3 0 12 -2 1 -11 -11 -4 -1 5 3 0 1 -3 -3 -5 -4 -3 -4 -3 -2 -1 -0 -1 -2 -2 -2 -3 -0 -1 -1 -2 -4 -1 -3 -3 -1 -0
-19 -3 1 -6 -5 2 0 12 -1 1 -10 -7 -7 -36 12 11 13 2 1 0 -2 -3 -1 -0 -3 -2 -1 -3 -2 -2 -2 -3 -5 -2 -1 -1 0 1 2 -2 2 -0 -0 -1
15 8 3 -6 22 -15 12 2 -5 -3 -3 -18 13 -53 7 19 7 13 4 -3 0 -4 -2 -1 -2 -1 -0 -1 -0 -0 -2 -2 1 0 1 -5 -1 -3 4 -1 1 2 2 -4
-2 1 -6 5 -2 -2 0 3 5 -4 -4 -48 11 -12 29 5 5 6 5 -0 2 -3 -2 -1 0 1 -3 0 -0 1 1 -1 -1 -1 -2 -3 -1 0 -3 0 -2 1 1 3
9 -4 -1 1 14 9 2 3 -3 -17 -8 -33 3 -42 32 -2 2 -3 8 1 -1 3 -0 2 1 -1 -2 1 1 2 2 2 1 -2 -3 -2 -4 -1 1 1 2 4 4 2
-3 -13 7 23 8 19 6 -5 -13 -6 -9 -6 -2 -35 1 0 -1 9 2 -0 0 -2 1 -0 1 0 0 -0 1 2 -1 -4 -2 -0 1 -2 0 -1 0 0 1 2 5 5
5 -22 17 12 17 14 7 -35 26 -13 -8 -21 5 -3 -5 2 8 0 2 1 -2 -4 -0 -0 -0 5 0 0 -1 1 -2 0 3 2 -1 -3 -2 -2 0 1 -0 2 3 -2
-3 -4 6 8 6 -5 -6 -1 -6 -4 -20 -14 -11 -34 -6 3 7 -2 4 1 1 -0 2 1 1 1 2 0 -1 -1 -1 -2 -3 -5 -3 0 3 1 -2 -1 -1 -4 1 -2
4 0 6 5 -13 11 10 -5 -7 6 -6 -2 -23 -52 8 10 -1 3 -0 1 2 -1 -1 2 1 1 1 -1 -0 1 1 0 -2 -3 -4 -4 -3 -3 -1 1 -3 -1 -10 -2
46 2 -14 3 -4 5 -8 -10 3 -22 6 -18 5 -112 -11 2 -0 -1 -1 -1 3 4 1 1 2 2 1 -2 -1 3 5 2 0 3 1 -1 -5 -3 -2 -2 2 -3 4 -2
14 -26 -1 -3 -10 -11 -8 8 11 6 -8 -70 29 -71 7 12 5 2 -3 -0 4 4 1 2 -0 -2 -2 -1 -1 -2 -1 -1 2 1 -1 -1 -1 -1 -3 -1 -1 -3 -2 2
3 -3 -21 -22 36 15 -15 3 7 8 -36 27 -66 6 3 4 -2 1 2 2 1 3 2 -0 -0 2 0 -2 -3 -2 0 1 3 2 3 2 6 4 -1 -5 -2 -3 2 -1
-7 -10 12 12 6 -0 -6 1 8 -20 5 -28 45 -30 -3 1 -4 -2 -4 -3 0 4 4 4 4 0 0 2 0 -1 -3 -3 -2 2 1 1 -4 5 2 0 -3 -4 1 -2
-6 -22 5 -23 12 6 -13 -8 -5 -5 2 -29 6 -18 4 -2 -2 -4 3 1 0 1 4 1 3 4 0 3 5 3 4 1 3 -1 -6 2 2 3 5 1 1 1 2 -1
-2 -10 -2 -51 20 4 -1 -23 14 13 -1 12 -31 47 4 -1 -1 -2 -2 6 2 -3 -3 1 2 -4 -1 0 2 1 5 2 -0 -7 -3 -7 -9 -3 -0 -3 -3 -5 -8 -8
-4 6 6 -3 13 -2 -24 7 11 -6 0 -1 -10 11 7 4 -1 -2 -0 -1 -2 -2 -5 3 1 -3 -5 -2 -2 2 4 2 6 0 3 5 1 2 2 -5 -3 -0 -3 -5
8 4 2 -3 8 -4 -22 -7 15 6 -7 -10 -2 5 0 -4 5 -7 3 0 -6 -2 -2 -4 -4 -5 -5 2 7 15 13 7 -2 2 -4 -5 -5 -10 -5 -3 -2 3 -4 -2
11 16 4 0 -2 -29 17 11 12 1 -60 7 19 1 0 -9 -16 19 12 -2 -0 12 18 37 33 28 15 7 17 15 -1 -1 -9 -8 -9 -3 -2 -5 -1 -6 -7 4 -4 -5
9 2 -13 17 -7 -30 3 1 11 -27 18 27 0 -1 -9 -4 0 11 8 5 12 26 15 10 2 -2 -2 -1 2 3 -0 -1 2 1 -0 -1 -6 -10 -4 -6 4 -7 1 -1
4 11 3 11 1 -57 28 1 -0 15 1 -1 4 0 -7 -8 1 1 3 5 3 -1 -2 -7 -6 -4 -5 -5 1 2 2 1 -0 -1 -1 5 5 3 1 -2 -3 -4 -0 -4
-26 4 2 8 -5 9 -12 4 -4 -6 -3 2 1 2 4 -2 -1 6 4 4 -2 -4 -5 -2 -3 -2 0 -2 0 6 4 0 2 4 3 -0 3 6 4 -6 -3 -10 -4 -1
7 1 1 11 3 -1 -4 -6 -3 -0 1 -5 -2 4 4 -0 3 -0 -1 -3 -3 -3 -2 -4 -3 -4 -0 -5 -3 -3 -4 -5 -3 -3 0 3 -2 -0 -1 -6 -6 -7 -7 -1
-2 4 1 -7 -10 3 4 5 0 -9 -7 -4 -4 -6 -3 -1 0 -1 0 -1 -4 -3 -3 -2 -2 -1 0 -3 -4 -2 -5 -8 -4 -1 -0 -4 -6 -10 -2 -4 -2 -8 -2 -0
-1 3 -7 -1 4 -2 4 -2 -1 2 -1 -2 3 2 -4 -5 -3 -5 -5 -6 -5 -3 -2 -5 -1 -2 2 -1 -1 2 2 -1 -4 -3 -3 -7 -7 5 2 -5 -9 3 -10 -3
Height
5805 5808 5816 5824 5823 5823 5825 5825 5828 5834 5835 5834 5832 5830 5834 5835 5836 5840 5840 5839 5834 5830 5828 5827 5826 5825 5823 5821 5821 5823 5822 5821 5823 5823 5823 5823 5824 5825 5827 5828 5828 5827 5827 5827
5797 5800 5812 5813 5814 5815 5816 5819 5822 5825 5825 5823 5825 5824 5825 5828 5830 5832 5832 5830 5823 5821 5819 5820 5819 5817 5815 5815 5814 5815 5816 5817 5817 5818 5820 5820 5821 5821 5822 5823 5823 5822 5823 5822
5786 5796 5798 5801 5805 5807 5811 5810 5814 5813 5814 5814 5813 5812 5818 5824 5822 5824 5825 5818 5815 5812 5811 5811 5811 5808 5808 5807 5808 5809 5811 5812 5813 5815 5816 5815 5816 5817 5818 5817 5817 5817 5817 5816
5774 5781 5788 5793 5797 5799 5801 5805 5803 5803 5801 5806 5808 5793 5808 5817 5816 5817 5818 5812 5808 5807 5805 5804 5802 5802 5801 5801 5802 5803 5805 5807 5809 5810 5810 5809 5810 5810 5810 5811 5811 5810 5809 5808
5772 5776 5779 5781 5788 5790 5793 5793 5794 5795 5795 5794 5797 5794 5787 5804 5806 5808 5810 5806 5803 5800 5798 5797 5796 5795 5795 5795 5796 5798 5800 5802 5803 5803 5803 5803 5803 5803 5803 5803 5803 5802 5801 5801
5756 5761 5767 5775 5778 5780 5782 5782 5785 5788 5786 5782 5786 5789 5773 5783 5793 5796 5796 5799 5794 5792 5791 5790 5789 5789 5789 5790 5791 5792 5793 5794 5795 5795 5796 5796 5795 5795 5795 5793 5793 5793 5791 5792
5750 5754 5759 5765 5767 5769 5771 5775 5776 5777 5774 5772 5777 5772 5768 5768 5782 5784 5788 5787 5783 5783 5782 5782 5782 5782 5783 5783 5783 5784 5785 5786 5786 5787 5787 5787 5787 5787 5786 5785 5784 5784 5783 5782
5734 5741 5747 5758 5761 5761 5763 5764 5766 5761 5764 5765 5763 5752 5756 5764 5769 5776 5777 5776 5774 5772 5772 5773 5774 5775 5775 5775 5775 5776 5776 5777 5776 5777 5779 5779 5778 5777 5776 5774 5774 5774 5773 5772
5725 5729 5738 5745 5745 5749 5752 5751 5758 5754 5752 5749 5747 5748 5751 5753 5759 5761 5763 5764 5762 5762 5762 5763 5764 5765 5766 5766 5767 5767 5768 5769 5770 5769 5768 5768 5768 5767 5768 5767 5764 5762 5762 5761
5712 5718 5725 5730 5731 5737 5739 5741 5741 5741 5741 5738 5736 5737 5738 5745 5748 5749 5752 5751 5750 5749 5751 5752 5753 5754 5755 5757 5758 5759 5761 5762 5763 5761 5759 5758 5758 5758 5756 5755 5752 5749 5746 5745
5702 5707 5713 5715 5720 5728 5727 5727 5729 5729 5729 5726 5725 5727 5734 5732 5738 5740 5738 5738 5738 5738 5740 5742 5743 5743 5745 5747 5747 5749 5751 5752 5752 5751 5749 5745 5744 5743 5742 5739 5738 5736 5734 5731
5695 5693 5699 5703 5706 5709 5711 5715 5714 5710 5716 5717 5715 5713 5726 5722 5725 5726 5727 5727 5728 5728 5730 5731 5731 5732 5733 5734 5734 5736 5737 5737 5736 5735 5733 5732 5731 5728 5726 5724 5723 5720 5718 5715
5676 5676 5684 5690 5692 5692 5694 5701 5706 5704 5702 5705 5696 5701 5712 5715 5715 5715 5714 5716 5717 5718 5718 5720 5720 5720 5720 5720 5721 5722 5722 5723 5722 5721 5719 5718 5716 5714 5711 5708 5706 5705 5702 5700
5657 5660 5668 5675 5682 5683 5682 5685 5688 5685 5684 5690 5687 5693 5697 5697 5700 5702 5702 5703 5706 5707 5707 5707 5707 5707 5706 5707 5707 5707 5708 5707 5706 5706 5705 5703 5701 5697 5696 5695 5692 5690 5686 5682
5640 5645 5655 5664 5663 5665 5668 5671 5671 5668 5676 5670 5685 5680 5683 5684 5686 5687 5690 5692 5693 5693 5693 5694 5693 5694 5695 5695 5695 5694 5692 5691 5689 5687 5684 5681 5678 5680 5677 5674 5671 5668 5664 5661
5626 5632 5638 5642 5648 5648 5647 5653 5658 5659 5661 5659 5666 5669 5673 5673 5673 5676 5679 5680 5679 5678 5678 5679 5680 5681 5681 5681 5680 5679 5677 5674 5671 5667 5663 5664 5663 5660 5657 5654 5651 5649 5646 5642
5612 5617 5623 5626 5631 5628 5622 5646 5643 5648 5649 5652 5652 5663 5660 5661 5665 5666 5666 5665 5662 5663 5664 5665 5664 5664 5663 5663 5662 5660 5658 5656 5652 5651 5648 5644 5643 5641 5638 5637 5634 5629 5624 5619
5601 5605 5608 5609 5612 5605 5622 5629 5630 5631 5637 5639 5642 5647 5647 5649 5650 5651 5650 5650 5651 5651 5650 5649 5649 5649 5647 5645 5643 5640 5637 5635 5632 5628 5627 5626 5623 5622 5619 5616 5610 5604 5598 5594
5586 5590 5592 5593 5595 5598 5608 5615 5614 5613 5625 5627 5627 5631 5633 5635 5637 5638 5637 5636 5637 5636 5635 5635 5633 5632 5630 5629 5627 5625 5619 5616 5614 5608 5608 5604 5601 5600 5596 5592 5585 5579 5572 5569
5571 5574 5576 5578 5578 5583 5603 5603 5601 5598 5606 5613 5615 5616 5618 5620 5621 5624 5624 5623 5620 5620 5620 5618 5614 5614 5612 5609 5607 5604 5601 5597 5594 5592 5588 5583 5577 5571 5565 5560 5556 5552 5545 5544
5556 5557 5560 5567 5564 5572 5588 5585 5587 5587 5606 5604 5601 5600 5600 5603 5609 5608 5604 5606 5605 5604 5601 5599 5597 5594 5592 5589 5587 5585 5580 5576 5573 5570 5566 5560 5553 5547 5541 5538 5533 5528 5524 5519
5544 5547 5551 5553 5553 5559 5572 5573 5576 5582 5582 5583 5583 5585 5585 5586 5590 5591 5589 5589 5590 5588 5585 5583 5581 5577 5575 5573 5572 5568 5563 5559 5555 5551 5545 5540 5533 5527 5520 5513 5509 5502 5496 5490
5529 5536 5540 5543 5546 5552 5554 5559 5561 5563 5568 5568 5569 5571 5572 5571 5573 5573 5573 5571 5569 5569 5569 5566 5564 5561 5558 5555 5553 5549 5543 5539 5535 5531 5525 5519 5514 5506 5498 5491 5485 5479 5474 5470
5519 5521 5523 5529 5535 5538 5541 5545 5548 5551 5553 5554 5556 5557 5557 5557 5557 5556 5555 5555 5554 5553 5551 5550 5549 5546 5541 5536 5532 5528 5523 5517 5514 5509 5505 5498 5492 5486 5477 5469 5463 5461 5461 5454
5505 5509 5513 5515 5521 5525 5528 5531 5533 5534 5536 5538 5540 5542 5542 5543 5542 5540 5539 5538 5536 5533 5531 5529 5527 5524 5519 5512 5509 5504 5498 5495 5493 5489 5484 5478 5470 5463 5456 5452 5449 5445 5443 5437
5488 5493 5497 5505 5508 5510 5512 5514 5517 5518 5521 5522 5524 5524 5526 5525 5523 5521 5519 5517 5516 5513 5511 5510 5507 5505 5500 5494 5489 5484 5480 5477 5473 5469 5463 5456 5449 5445 5440 5437 5436 5431 5428 5424